Starlink 30192

operational
NORAD ID: 57405 Int'l Des: 2023-102 Owner: SPXS Country: US Constellation: starlink
LEOCIRCULAR

About Starlink 30192

Description loading...

Live Position

Loading 3D Globe...

Upcoming Passes

Altitude History

Altitude vs Time

uPlot chart will show altitude changes over time

Two-Line Element Set

1 57405U 23102B 25352.66667824 .00081089 00000-0 48399-3 0 9993
2 57405 42.9989 309.6773 0002169 204.6341 172.2705 15.76928055 5891
Epoch: Dec 18, 2025 • Age: 7 hours

Current Status

Altitude 350.2 km
Velocity 7.70 km/s
Sub-Earth Point -38.13°S, 174.33°E
Launch Date Jul 19, 2023
Age 2.4 years
Type internet

Technical Details

Classification Payload
Mass 730.00 kg
Dry Mass 700.00 kg
Total Mass 730.00 kg
Length 0.30 m
Diameter 4.10 m
Span 29.00 m
Shape Box + pan
Manufacturer SPXS
Bus Type Starlink V2M
Phase Status In Orbit
Owner/State SPXS/US

Large Constellations

Loading constellations...